Weather in Ufa

Russia / Republic of Bashkortostan     54°44′06″N   55°57′31″E
temp.,
°C
wind,
m/s
gust,
m/s
humid.,
%
clouds,
%
prec.,
mm/h
press.,
hPa
HPBL,
m
25 february, thu
thu2523:00−22nnw5129181 0.0 1027346
02:00−26nnw46955 0.0 1030129
05:00−27nnw34962 0.0 103178
08:00−29nw22970 0.0 103320
11:00−25wnw11920 0.0 1033185
14:00−21ssw228635 0.0 1032344
17:00−20ssw348932 0.0 1031317
20:00−25sse33920 0.0 103147
26 february, fri
fri2623:00−26sse36921 0.0 1030111
02:00−26sse48900 0.0 1029159
05:00−25sse5109123 0.0 1028244
08:00−22sse5109597 0.1 1026381
11:00−20s6109399 0.2 1025441
14:00−17s61091100 0.1 1022568
17:00−15s51090100 0.1 1021662
20:00−16s5129189 0.1 1019526
27 february, sat
sat2723:00−16s6139189 0.1 1017567
02:00−15sse6149299 0.1 1013593
05:00−13sse71694100 0.7 1008658
08:00−10sse81694100 3.4 1003854
11:00−8s91693100 6.8 1001835
14:00−4s81490100 0.8 999634
17:00−1s61193100 1.3 998539
20:000sw4898100 0.6 998450
28 february, sun
sun2823:00−1ssw4997100 1.3 999352
02:00−2ssw4997100 0.4 997345
05:00−2ssw4897100 1.1 998306
08:00−2ssw3798100 1.0 998298
11:00−1ssw3598100 1.7 999346
14:000sw24100100 0.4 1000348
17:000w12100100 1.1 1001242
20:00−6nw479699 0.4 1003167
1 march, mon
mon123:00−9wnw359691 0.6 1006114
02:00−11wnw239797 0.0 100880
05:00−11wnw369698 0.1 1010183
08:00−12wnw369596 0.3 1012195
11:00−12nw369497 0.5 1013287
14:00−10nw4593100 0.2 1015396
17:00−11nw4693100 0.3 1016408
20:00−13nw479598 0.2 1017256